Probability
44 48 53 51 45 44 47 41 33 29 24 16 9 4 1 0 1 3 6 12 16 17 17 17 15 13 15 21 28 33 35 37 37 39 42 41 36 32 30 29 28 28 27
66 69 71 67 61 63 66 58 47 38 32 25 18 10 4 3 3 4 6 8 11 12 13 13 12 12 16 23 31 37 42 46 48 50 49 46 42 40 38 37 36 34 32
89 89 89 84 79 80 81 72 60 49 41 35 27 18 11 9 7 6 6 6 6 7 8 9 9 10 13 20 28 34 40 46 50 53 52 49 48 46 44 44 45 44 42
93 92 92 90 85 82 78 68 56 46 38 32 26 20 14 12 11 8 6 5 4 3 4 5 5 5 7 11 16 21 25 30 34 38 40 40 41 41 41 43 45 47 48
87 86 84 82 78 74 66 53 40 31 25 20 16 12 8 8 8 6 4 3 1 1 1 1 2 1 2 4 6 8 11 12 15 19 20 21 23 25 27 30 33 37 41
76 74 70 67 65 60 51 36 23 16 12 9 7 4 2 2 2 2 1 1 0 0 0 0 0 0 0 1 1 2 2 2 4 6 6 5 6 8 11 13 16 20 24
63 60 54 51 49 46 36 22 12 7 5 4 3 2 0 0 0 0 0 0 0 0 0 0 0 0 0 0 0 0 0 0 0 1 1 0 0 1 2 4 6 8 10
51 49 43 38 35 31 24 14 7 3 1 1 2 1 0 0 0 0 0 0 0 0 0 0 0 0 0 0 0 0 0 0 0 0 0 0 0 0 0 1 2 3 4
40 38 34 29 25 22 17 11 6 2 0 0 1 1 0 0 0 0 0 0 0 0 0 0 0 0 0 0 0 0 0 0 0 0 0 0 0 0 0 0 1 1 2
26 25 22 19 17 15 12 8 5 1 0 0 0 0 0 0 0 0 0 0 0 0 0 0 0 0 0 0 0 0 0 0 0 0 0 0 0 0 0 0 0 0 1
14 12 11 9 8 7 5 4 2 0 0 0 0 0 0 0 0 0 0 0 0 0 0 0 0 0 0 0 0 0 0 0 0 0 0 0 0 0 0 0 0 0 0
6 4 3 2 1 1 1 1 0 0 0 0 0 0 0 0 0 0 0 0 0 0 0 0 0 0 0 0 0 0 0 0 0 0 0 0 0 0 0 0 0 0 0
2 1 0 0 0 0 0 0 0 0 0 0 0 0 0 0 0 0 0 0 0 0 0 0 0 0 0 0 0 0 0 0 0 0 0 0 0 0 0 0 0 0 0
1 0 0 0 0 0 0 0 0 0 0 0 0 0 0 0 0 0 0 0 0 0 0 0 0 0 0 0 0 0 0 0 0 0 0 0 0 0 0 0 0 0 0
0 0 0 0 0 0 0 0 0 0 0 0 0 0 0 0 0 0 0 0 0 0 0 0 0 0 0 0 0 0 0 0 0 0 0 0 0 0 0 0 0 0 0
0 0 0 0 0 0 0 0 0 0 0 0 0 0 0 0 0 0 0 0 0 0 0 0 0 0 0 0 0 0 0 0 0 0 0 0 0 0 0 0 0 0 0
0 0 0 0 0 0 0 0 0 0 0 0 0 0 0 0 0 0 0 0 0 0 0 0 0 0 0 0 0 0 0 0 0 0 0 0 0 0 0 0 0 0 0
0 0 0 0 0 0 0 0 0 0 0 0 0 0 0 0 0 0 0 0 0 0 0 0 0 0 0 0 0 0 0 0 0 0 0 0 0 0 0 0 0 0 0
0 0 0 0 0 0 0 0 0 0 0 0 0 0 0 0 0 0 0 0 0 0 0 0 0 0 0 0 0 0 0 0 0 0 0 0 0 0 0 0 0 0 0
0 0 0 0 0 0 0 0 0 0 0 0 0 0 0 0 0 0 0 0 0 0 0 0 0 0 0 0 0 0 0 0 0 0 0 0 0 0 0 0 0 0 0
0 0 0 0 0 0 0 0 0 0 0 0 0 0 0 0 0 0 0 0 0 0 0 0 0 0 0 0 0 0 0 0 0 0 0 0 0 0 0 0 0 0 0
0 0 0 0 0 0 0 0 0 0 0 0 0 0 0 0 0 0 0 0 0 0 0 0 0 0 0 0 0 0 0 0 0 0 0 0 0 0 0 0 0 0 0
0 0 0 0 0 0 0 0 0 0 0 0 0 0 0 0 0 0 0 0 0 0 0 0 0 0 0 0 0 0 0 0 0 0 0 0 0 0 0 0 0 0 0
0 0 0 0 0 0 0 0 0 0 0 0 0 0 0 0 0 0 0 0 0 0 0 0 0 0 0 0 0 0 0 0 0 0 0 0 0 0 0 0 0 0 0
0 0 0 0 0 0 0 0 0 0 0 0 0 0 0 0 0 0 0 0 0 0 0 0 0 0 0 0 0 0 0 0 0 0 0 0 0 0 0 0 0 0 0
0 0 0 0 0 0 0 0 0 0 0 0 0 0 0 0 0 0 0 0 0 0 0 0 0 0 0 0 0 0 0 0 0 0 0 0 0 0 0 0 0 0 0
Wind_Speed
3 3 2 2 2 2 3 1 1 1 1 1 2 2 4 4 4 5 5 8 8 7 5 5 4 5 6 6 6 7 7 8 8 7 7 7 7 7 6 6 6 6 6
4 3 3 2 1 1 2 1 1 1 1 2 3 4 4 5 5 4 4 5 6 5 4 4 3 3 5 5 6 6 6 7 7 7 7 7 7 7 7 7 7 7 7
5 4 2 2 1 1 2 2 2 2 2 2 3 3 3 3 5 5 2 2 4 5 4 3 2 0 2 4 5 6 6 6 6 6 6 7 7 7 8 8 8 8 8
5 3 2 2 2 2 2 2 3 3 3 4 3 4 4 3 4 3 3 3 1 3 4 4 3 2 1 2 4 5 5 5 5 5 6 6 6 6 6 7 8 8 9
5 4 3 3 3 2 2 2 3 2 2 3 2 2 3 3 3 3 3 3 2 1 3 5 4 3 1 0 1 2 3 3 3 4 5 6 5 5 5 6 7 8 8
4 4 3 3 3 3 3 3 3 2 2 2 3 2 2 2 1 1 2 2 1 2 0 3 4 4 5 4 3 2 2 3 3 4 5 6 5 6 7 7 8 8 8
4 4 3 3 2 2 3 4 3 2 1 1 1 2 3 3 3 2 1 2 2 2 1 1 2 1 3 7 6 5 4 4 4 5 7 8 8 8 9 9 10 10 10
4 3 3 3 3 3 3 3 2 1 1 1 1 1 2 2 2 3 3 3 3 2 2 4 2 2 2 2 5 9 8 6 5 6 8 9 10 11 12 12 13 13 13
4 4 3 3 3 2 3 3 2 2 1 1 0 1 1 2 3 1 1 2 2 2 2 3 4 4 4 3 3 8 9 7 7 7 9 10 12 13 15 15 16 16 16
6 5 5 5 4 3 3 3 3 2 2 1 1 1 1 2 1 3 3 3 3 3 4 5 5 3 3 2 3 5 9 10 9 9 9 11 13 15 17 18 18 19 19
7 7 7 6 6 6 6 6 5 4 3 2 2 1 2 1 0 2 4 4 3 3 3 4 4 4 3 3 3 3 6 8 7 7 9 12 14 17 19 20 20 21 21
7 8 8 7 7 6 6 6 5 6 4 4 3 2 1 1 1 2 3 4 5 4 4 3 3 4 4 4 5 2 4 6 6 7 10 13 16 19 20 21 22 22 22
6 7 7 7 6 6 5 5 5 4 4 3 2 1 1 1 2 2 3 5 5 5 5 4 4 3 3 1 1 1 2 4 6 8 10 14 17 19 21 21 22 22 23
7 7 7 7 6 5 5 4 4 3 2 2 2 1 1 2 2 3 3 4 6 5 5 6 3 2 2 2 1 1 3 6 7 8 10 14 18 20 21 22 23 23 23
7 7 7 6 6 5 4 3 3 3 2 2 2 2 2 3 3 3 3 4 5 7 6 5 4 3 3 3 2 3 4 8 11 12 13 15 18 21 22 22 23 23 23
7 7 7 6 5 5 4 4 2 2 2 2 2 3 3 3 3 4 4 5 5 6 7 5 4 4 6 7 10 6 6 14 14 15 16 17 17 19 21 22 23 23 23
7 7 6 5 5 4 4 3 3 3 3 4 4 5 5 5 4 4 4 5 5 5 7 7 6 6 7 6 7 7 8 7 8 15 16 15 16 17 19 21 22 23 23
6 6 5 5 4 4 4 4 5 6 5 5 5 5 5 5 5 4 4 5 5 5 6 8 7 7 7 7 8 8 9 9 7 13 15 16 17 18 19 20 21 21 21
6 5 5 4 4 4 5 6 6 6 6 5 5 5 5 5 5 4 4 5 5 6 5 7 8 6 6 7 8 8 8 7 9 12 14 15 16 17 18 18 19 20 20
5 5 4 5 5 7 8 9 9 8 7 7 6 6 6 5 5 4 5 5 5 6 6 7 7 7 7 7 6 6 7 6 7 10 12 13 14 15 16 17 18 20 19
5 4 4 5 5 6 8 9 8 9 9 9 7 6 7 8 8 5 6 5 6 7 7 7 8 8 8 7 7 6 8 7 8 7 6 7 7 6 8 11 14 17 17
5 5 5 5 5 6 7 9 8 8 9 9 8 7 8 7 5 5 8 10 11 10 9 9 9 9 10 8 7 7 7 8 6 4 5 8 7 7 7 6 9 12 13
4 4 4 4 5 6 5 6 10 9 9 7 7 7 8 7 5 5 8 12 11 13 12 9 10 10 10 8 8 8 7 8 9 8 7 8 7 7 7 7 9 10 11
3 2 3 4 3 4 3 5 12 9 8 6 6 7 6 5 4 6 9 10 10 9 10 8 6 8 9 8 7 8 9 9 9 7 6 6 6 6 7 5 8 10 11
2 2 2 3 2 3 1 4 9 9 6 7 7 7 6 5 4 8 9 10 11 10 11 12 11 12 14 15 11 6 7 7 8 7 4 4 4 6 6 6 5 7 9
2 3 2 2 2 2 3 2 7 7 7 8 7 6 5 5 7 9 9 10 11 11 11 12 12 11 9 8 8 6 5 6 6 5 2 3 4 4 5 4 4 5 5
Wind_Direction
177 163 148 148 181 158 168 201 238 306 337 319 318 330 353 354 39 93 124 131 131 137 151 175 206 225 233 234 232 229 228 229 229 228 228 229 230 229 231 234 236 238 237
156 152 137 136 187 121 120 121 92 48 4 6 5 17 16 4 15 55 106 129 131 137 152 174 200 231 244 243 241 238 236 237 237 234 231 231 232 232 233 235 238 241 240
145 140 140 145 146 85 86 79 57 42 21 28 24 18 23 17 13 20 21 119 139 136 137 135 129 125 284 275 269 263 256 250 249 243 241 239 237 239 241 243 245 245 243
133 134 138 132 104 71 57 59 49 42 28 21 19 16 14 15 13 2 352 350 71 124 132 128 113 90 3 308 294 286 281 277 273 267 262 259 257 258 259 257 256 255 251
144 138 123 105 104 98 83 81 70 61 49 24 353 18 8 2 5 342 351 342 354 46 136 149 155 159 171 194 297 300 307 314 315 312 304 295 291 292 295 287 279 272 265
133 123 121 123 122 113 107 96 90 67 60 31 338 344 334 316 311 317 311 314 320 303 301 155 175 192 202 211 221 246 276 301 315 319 317 317 325 328 325 315 309 299 288
113 115 120 123 125 126 129 129 123 113 91 72 321 291 260 240 235 226 241 282 281 276 309 290 254 212 188 214 223 236 245 265 288 301 306 309 310 311 310 310 307 302 298
108 125 125 130 126 124 132 137 131 132 133 147 170 278 293 277 242 229 205 219 245 262 261 266 244 229 231 202 205 217 231 245 268 287 296 303 307 308 304 299 296 294 292
90 80 98 98 107 126 132 131 134 152 152 138 122 154 273 305 340 313 257 256 244 253 275 289 273 248 234 234 200 211 220 226 246 270 285 293 299 301 299 296 292 288 286
77 77 79 81 82 83 94 99 88 83 112 123 89 50 49 60 341 325 316 291 269 255 248 262 273 286 273 252 250 236 210 210 229 252 272 285 292 295 295 293 290 287 284
73 72 72 73 72 73 73 72 69 63 64 75 73 57 42 20 225 257 294 313 308 281 261 249 249 252 258 259 257 243 210 202 216 247 268 279 286 290 290 289 287 285 284
76 74 76 75 75 78 77 76 71 68 66 65 56 46 41 8 319 290 290 302 301 299 296 280 258 246 242 245 259 218 187 192 212 242 267 279 285 288 289 287 285 285 284
87 80 81 79 79 78 77 79 77 72 66 62 47 28 11 333 312 301 294 295 297 297 294 283 265 256 264 263 111 155 231 225 232 247 265 278 283 285 285 284 284 284 285
90 89 85 83 82 82 81 76 77 72 64 41 14 5 325 304 299 286 284 297 300 297 292 293 305 319 340 355 75 311 296 288 274 265 266 274 279 281 280 280 280 281 281
97 93 91 88 82 76 71 69 70 58 44 12 345 334 323 309 296 297 298 293 294 298 297 306 316 339 348 344 347 324 316 308 300 286 273 267 269 272 274 275 275 276 275
83 86 82 79 74 66 57 43 41 47 10 348 325 321 317 317 335 324 315 313 305 298 299 309 318 341 355 334 321 325 307 300 292 284 276 268 264 264 268 270 270 270 271
82 81 80 76 73 65 48 26 3 5 2 356 342 347 347 338 327 329 322 314 314 320 313 313 316 321 325 313 304 295 290 283 279 277 276 273 267 262 262 265 266 266 267
76 76 74 67 61 56 38 19 5 12 3 355 350 344 336 330 337 321 320 319 315 311 302 304 306 303 300 296 287 283 290 290 290 291 285 278 271 264 260 259 259 259 259
67 63 59 54 43 38 36 27 15 2 351 344 338 327 320 316 308 314 319 309 305 307 307 299 296 293 291 290 292 293 294 292 296 295 291 285 279 274 267 262 258 255 252
64 51 44 39 37 40 38 24 7 347 343 335 322 312 306 303 304 318 311 303 311 316 304 297 295 296 295 293 301 303 302 295 295 297 293 293 289 284 277 269 262 259 253
55 43 38 37 36 59 40 25 357 344 337 322 315 311 307 304 297 287 294 309 309 300 301 298 299 302 300 307 307 305 300 298 289 282 288 292 293 288 285 277 270 265 258
41 34 32 34 37 58 57 30 360 336 319 310 313 318 312 307 324 296 282 283 279 281 289 293 295 294 297 302 304 303 301 302 298 294 300 297 292 290 286 281 280 273 263
42 37 27 28 66 87 54 12 351 324 307 307 315 315 316 328 356 348 326 310 295 287 280 279 282 287 294 299 304 305 302 301 295 295 295 293 292 290 288 295 298 287 276
25 24 26 18 52 99 57 2 341 322 311 316 317 311 313 329 18 353 323 312 304 305 301 294 283 288 295 298 297 294 292 291 287 284 280 285 293 295 302 295 290 283 279
6 1 27 14 22 116 107 356 346 323 324 328 319 322 328 336 19 343 322 312 311 309 312 318 310 295 289 285 282 286 289 292 297 299 301 288 293 304 297 290 294 297 288
347 348 6 351 353 73 147 341 340 330 334 330 321 326 350 345 331 323 317 311 306 309 316 316 311 304 295 288 279 262 275 291 299 298 313 305 292 306 298 289 306 306 300